Content
SEND FEEDBACK

Daily
Averages
Monthly
Summary
Iran

FASA, IRAN


Home > Middle East > Iran
Elevation: 4537 feet     Latitude: 28 58N     Longitude: 053 40E

WEATHER
 
SELECT A DAY
Number of Records: 43,011;   Date Range: 5/21/03 - 10/1/14
 
SHARE

PRINT THIS DATA

[ ← Previous Day ]
WEATHER ALMANAC - JANUARY 31, 2013
[ Next Day → ]
[ °C ]   °F
Weather ElementAverageHighLow
Temperature50.2 °F60.8 °F (12:20 pm)39.2 °F (6:20 am)
Dewpoint41 °F46.4 °F (6:20 pm)33.8 °F (6:20 am)
Humidity73 %100 % (7:20 pm)39 % (1:20 pm)
Barometer29.94 in30.01 in (9:20 am)29.86 in (3:30 pm)
Wind Speed2.9 mph11.5 mph (2:20 pm)
Weather ElementAverage
Visibility3.5 mi
Wind DirectionENE (63.8 °)

Weather ElementTotal
Precipitation---
Heating Degree Days15 (Base 65)
Averaged from 22 records on January 31, 2013
WEATHER CONDITIONS BREAKOUT
WIND DIRECTION BREAKOUT
WEATHER BY HOUR - JANUARY 31, 2013
[ °C ]   °F
Local TimeTemperatureDewpointHumidityBarometerVisibilityWind DirectionWind SpeedGust SpeedPrecipitationEventsConditions
5:20 AM41.0 °F35.6 °F81 %29.95 inCalmClear
6:20 AM39.2 °F33.8 °F81 %29.98 in6.2 miCalmMostly Cloudy
7:20 AM39.2 °F33.8 °F81 %29.98 in5.0 miCalmOvercast
8:20 AM46.4 °F37.4 °F71 %29.98 in5.0 miCalmMostly Cloudy
9:20 AM51.8 °F39.2 °F62 %30.01 in5.0 miCalmMostly Cloudy
9:30 AM53.0 °F40.0 °F50 %29.95 in5.0 miCalmHaze
10:20 AM57.2 °F35.6 °F44 %30.01 in5.0 miCalmMostly Cloudy
11:20 AM59.0 °F37.4 °F45 %29.98 in5.0 miCalmMostly Cloudy
12:20 PM60.8 °F37.4 °F42 %29.92 in4.3 miSouth (170°)9.2 mphMostly Cloudy
1:20 PM60.8 °F35.6 °F39 %29.92 in4.3 miSSE (150°)6.9 mphMostly Cloudy
2:20 PM60.8 °F41.0 °F48 %29.89 in3.7 miSSW (200°)11.5 mphRainLight Rain Showers
3:20 PM53.6 °F41.0 °F62 %29.89 in3.7 miWSW (240°)9.2 mphRainLight Rain
3:30 PM53.0 °F41.0 °F54 %29.86 in4.0 miWSW (240°)8.9 mphRainLight Rain
4:20 PM51.8 °F44.6 °F76 %29.92 in2.5 miCalmRainLight Rain
5:20 PM50.0 °F44.6 °F82 %29.95 in1.6 miNE (40°)4.6 mphRainRain
6:20 PM48.2 °F46.4 °F93 %29.92 in1.6 miCalmRainRain
7:20 PM46.4 °F46.4 °F100 %29.95 in1.6 miCalmRainRain
8:20 PM46.4 °F46.4 °F100 %29.95 in1.9 miCalmRainRain
9:20 PM46.4 °F46.4 °F100 %29.95 in1.9 miSSE (150°)6.9 mphRainRain
9:30 PM47.0 °F46.0 °F95 %29.89 in2.0 miSSE (150°)6.7 mphRainRain
10:20 PM46.4 °F46.4 °F100 %29.95 in1.9 miCalmRainRain
11:20 PM46.4 °F46.4 °F100 %29.95 in1.9 miCalmRainRain
Hourly data recorded from OISF, located miles away from Fasa, Iran







STORIES FROM OUR PARTNERS